Probability
9 8 8 7 8 8 8 8 5 2 1 3 5 7 8 6 6 8 9 5 1 0 0 0 0 0 0 0 0 0 0 0 0 0 1 2 2 2
9 9 8 8 9 10 11 11 8 5 3 4 8 11 12 10 9 11 11 8 4 1 0 0 0 0 0 0 0 0 0 0 0 0 0 1 1 1
8 8 8 9 11 14 16 15 12 9 8 9 11 13 15 14 13 12 12 11 7 2 0 0 0 0 0 0 0 0 0 0 0 0 0 0 0 0
9 10 10 11 13 15 16 15 13 13 13 13 13 12 14 14 14 13 11 10 8 3 0 0 0 0 0 0 0 0 0 0 0 0 0 0 0 0
14 14 14 13 14 15 15 14 13 13 16 16 14 14 13 14 14 13 13 13 9 3 0 0 0 0 0 0 0 0 0 0 0 0 0 0 0 0
17 17 17 15 13 12 12 13 13 14 16 16 15 15 15 15 15 15 16 16 13 8 4 2 2 1 0 0 0 0 0 0 0 0 0 0 0 0
17 17 17 14 10 8 8 9 12 14 16 16 16 16 16 16 15 15 16 16 16 13 10 7 4 3 2 1 0 0 0 0 0 0 0 0 0 0
16 16 15 13 9 6 4 4 7 11 13 14 15 14 15 15 15 14 13 13 13 13 12 9 6 5 5 3 1 0 0 0 0 0 0 0 0 0
16 16 15 12 10 8 5 4 4 5 7 10 11 11 12 14 14 12 10 9 9 10 11 10 7 5 5 3 1 0 0 0 0 0 0 0 0 0
13 14 14 12 9 8 8 7 6 4 4 5 7 7 8 10 11 9 7 7 7 8 9 8 7 6 5 4 1 0 0 0 0 0 0 0 0 0
10 9 10 9 6 5 7 8 6 5 4 3 4 4 5 5 5 5 4 4 4 5 6 6 5 4 4 4 2 0 0 0 0 0 0 0 0 0
9 7 5 4 3 2 4 5 4 3 3 3 3 3 3 3 2 2 2 2 2 3 5 5 3 2 2 2 2 0 0 0 0 0 0 0 0 0
8 7 5 2 1 0 1 2 1 1 2 4 4 4 4 4 3 2 2 2 2 2 3 3 1 1 0 1 1 1 1 1 1 0 0 0 0 0
7 6 4 1 0 0 0 0 0 0 2 4 5 5 5 4 3 2 1 2 2 1 1 1 1 1 1 1 1 2 2 2 1 1 1 1 1 0
5 3 1 0 0 0 0 0 0 1 2 3 4 4 4 3 2 2 2 2 2 1 1 1 1 2 2 2 2 2 1 1 1 0 1 1 1 1
2 1 0 0 0 0 0 0 0 1 2 2 3 3 3 3 2 2 2 2 2 2 1 1 1 1 1 1 1 1 0 0 0 0 0 1 1 0
2 1 0 0 0 0 0 0 0 1 1 1 2 2 2 2 1 1 1 1 1 1 1 0 0 0 0 0 0 0 0 0 0 0 0 0 0 0
2 1 0 0 0 0 0 0 0 0 0 0 1 1 0 0 0 0 0 0 0 0 0 0 0 0 0 0 0 0 0 0 0 0 0 0 0 0
1 1 0 0 0 0 0 0 0 0 0 0 0 0 0 0 0 0 0 0 0 0 0 0 0 0 0 0 0 0 0 0 0 0 0 0 0 0
0 0 0 0 0 0 0 0 0 0 0 0 0 0 0 1 0 0 0 0 0 0 0 0 0 0 0 0 0 0 0 0 0 0 0 0 0 0
0 0 1 1 0 1 1 0 0 0 0 0 0 0 0 0 0 0 0 0 0 0 0 0 1 1 1 1 0 0 0 0 0 1 0 0 0 0
1 1 2 2 1 1 1 0 0 0 0 0 0 0 0 0 0 0 0 0 0 0 0 0 0 1 2 2 1 0 1 1 0 0 0 0 0 0
2 2 3 3 2 1 0 0 0 0 0 0 0 0 0 0 0 0 0 0 0 0 0 0 0 1 2 3 2 1 2 2 1 0 0 0 0 0
Wind_Speed
3 3 3 2 3 3 3 3 3 4 2 2 2 2 2 1 1 3 3 5 5 5 5 5 5 5 5 5 5 5 5 5 5 5 5 6 7 8
2 2 3 2 2 2 3 2 3 4 3 1 1 2 2 1 2 2 2 6 5 5 4 5 4 4 4 4 4 4 4 4 5 5 5 5 5 6
2 2 2 2 2 2 2 2 2 2 2 2 2 1 2 3 2 2 3 3 4 6 5 4 4 3 3 3 3 3 3 4 4 4 4 5 4 4
1 1 2 2 2 2 2 2 2 2 3 3 2 2 2 3 2 3 2 3 3 6 7 5 4 3 3 2 2 1 2 3 3 3 4 4 4 4
1 1 2 2 2 2 2 2 2 2 2 3 2 2 2 2 2 2 1 1 2 5 7 6 5 4 3 3 2 2 1 1 1 1 2 2 3 3
1 1 2 2 2 2 2 2 2 2 2 3 2 2 1 1 2 2 1 1 1 1 3 4 6 6 5 4 3 3 2 1 1 0 0 2 2 3
1 1 2 3 5 3 2 2 2 2 2 2 1 1 1 1 2 2 2 1 1 1 1 2 3 3 3 4 3 3 2 2 1 1 1 1 1 2
1 1 1 2 3 3 4 4 4 3 3 2 1 2 2 2 2 3 2 2 1 0 1 0 1 1 2 2 5 4 3 2 2 2 2 2 1 1
2 2 1 3 3 2 3 3 3 4 3 2 2 2 2 3 3 3 1 2 1 1 1 1 1 1 1 5 7 5 3 3 2 2 2 2 1 1
2 2 2 3 4 3 2 2 3 4 4 2 2 3 3 4 3 2 1 1 1 1 1 1 0 1 2 3 7 6 5 3 2 2 2 2 2 2
3 4 4 4 7 5 2 2 3 3 5 6 5 5 6 6 5 2 1 1 0 1 1 1 1 1 1 1 4 7 6 5 4 3 2 1 2 2
4 5 8 7 7 6 2 2 3 3 3 4 4 3 4 4 3 3 3 2 2 1 3 2 1 1 0 1 2 1 3 5 5 4 3 2 1 2
3 3 5 7 6 6 4 4 3 2 2 3 3 4 4 4 4 4 4 4 3 3 3 2 2 1 1 1 1 1 1 2 1 2 2 2 1 1
3 4 5 5 5 5 5 5 4 2 2 3 3 4 4 4 4 4 4 4 4 4 4 4 2 2 2 1 2 2 2 2 2 2 2 2 2 3
4 7 6 4 3 5 5 3 2 2 3 3 3 3 3 3 3 3 3 3 4 5 5 5 3 3 2 2 2 2 2 2 2 2 2 2 2 2
4 6 6 4 3 4 3 2 3 4 3 3 3 2 2 2 3 3 2 2 3 4 5 5 4 3 2 3 2 2 2 2 2 3 3 3 2 2
2 3 3 3 3 3 3 4 3 3 3 3 3 3 3 3 3 3 3 3 3 3 3 3 3 3 3 3 3 3 3 2 2 3 3 3 2 2
2 3 3 3 2 3 3 3 3 3 3 3 3 3 3 3 3 3 3 3 3 3 3 3 2 1 1 2 4 4 3 3 3 3 4 3 3 3
3 3 3 2 2 2 2 2 3 3 2 2 2 2 2 2 3 3 3 3 3 3 3 3 3 3 3 3 2 2 4 4 4 3 3 4 4 3
2 3 3 2 2 2 2 2 2 2 2 2 2 2 2 2 2 2 3 4 3 3 3 3 4 4 4 4 4 3 2 4 4 4 4 4 3 2
3 3 2 2 2 2 2 2 2 2 3 2 2 2 2 2 2 2 3 3 3 3 4 4 4 3 3 3 3 2 3 1 2 4 5 5 5 4
2 2 2 2 2 2 2 2 2 2 2 2 2 2 2 2 2 3 3 3 3 3 3 3 3 3 3 4 4 4 4 3 1 4 4 4 5 6
2 2 2 2 2 1 2 2 2 2 2 2 2 2 2 2 2 2 2 3 3 3 3 3 3 3 3 4 4 4 5 5 4 3 2 3 5 6
Wind_Direction
254 245 256 256 257 260 260 261 260 263 265 251 249 245 242 217 167 206 207 156 175 186 195 198 204 211 219 221 223 227 231 231 235 239 238 238 238 239
268 277 271 269 279 262 254 259 263 262 264 291 301 310 304 261 163 199 182 151 155 171 182 189 192 195 204 211 215 214 219 225 228 231 234 239 240 244
260 260 271 289 279 273 259 251 254 256 246 264 268 301 301 285 261 232 205 195 163 160 163 169 174 176 180 199 212 211 217 229 231 234 239 242 243 248
273 284 291 289 285 287 282 266 263 263 246 253 268 267 255 246 245 247 225 192 178 145 154 160 163 160 158 162 168 194 217 232 237 240 245 249 249 251
306 305 307 305 296 304 288 273 259 249 249 247 250 258 263 260 246 234 209 215 207 153 153 157 156 154 154 152 143 118 117 177 198 232 243 252 254 252
316 326 326 315 309 301 288 286 282 275 257 254 242 243 255 260 253 237 220 195 238 210 133 142 148 155 153 146 125 110 116 120 105 76 305 280 273 265
323 354 19 28 26 2 336 329 303 284 269 266 268 271 304 312 286 272 247 227 193 295 200 162 154 161 159 149 126 105 106 102 89 62 16 324 295 277
28 36 56 61 63 57 35 23 7 333 325 317 331 336 334 319 308 296 291 262 236 84 273 225 146 139 133 119 116 120 115 98 72 47 28 14 6 349
48 33 19 39 43 54 81 87 60 31 5 329 357 347 337 331 313 299 319 312 334 43 287 278 115 104 90 90 107 121 120 105 80 63 39 20 4 343
57 50 45 33 17 8 44 57 63 55 39 31 18 2 5 347 325 314 300 232 203 134 278 280 81 47 61 89 115 122 127 124 107 80 58 34 11 347
74 57 44 44 28 14 38 63 67 73 82 75 58 50 44 35 4 343 348 285 270 102 26 318 15 33 36 82 119 138 141 142 139 130 112 65 343 303
96 83 64 48 35 14 28 56 62 54 61 80 83 77 64 66 49 9 342 327 333 38 48 333 347 345 320 42 42 113 138 141 148 147 143 124 12 321
94 87 76 61 48 28 17 39 27 3 69 70 70 66 60 49 44 35 9 353 354 12 20 338 331 327 310 312 342 347 15 44 64 102 123 118 103 340
84 81 83 73 66 52 50 42 11 345 61 61 59 50 44 40 39 38 34 29 25 21 11 353 338 331 315 321 351 4 5 13 18 11 13 114 155 155
84 84 90 93 108 92 75 43 31 48 53 55 53 43 37 36 29 43 52 58 58 47 38 17 1 359 341 337 345 6 357 358 7 3 354 353 353 353
110 117 130 120 95 85 99 76 53 44 35 46 46 46 45 44 38 34 38 40 46 50 51 42 31 13 355 357 352 360 348 346 356 1 345 337 341 344
118 121 103 95 87 77 70 64 56 56 48 39 34 39 43 44 41 33 24 29 40 43 47 47 43 34 27 355 346 353 351 349 357 1 317 314 333 339
118 98 86 76 71 67 64 63 57 47 37 33 31 31 37 37 37 37 31 24 30 34 35 30 21 33 35 61 16 346 347 343 335 324 306 314 323 343
103 90 81 68 59 57 54 54 51 45 26 27 30 26 26 28 31 30 29 24 23 23 24 17 6 358 350 356 36 17 337 332 321 319 321 316 315 330
78 78 75 68 56 48 46 44 41 41 33 28 22 20 23 25 25 24 29 15 9 9 14 19 15 3 346 335 331 340 347 322 323 321 321 314 314 314
82 77 66 62 57 50 40 34 29 29 23 9 26 20 19 21 20 12 24 30 351 358 2 16 11 310 301 302 306 330 356 19 307 305 309 306 309 305
81 79 72 55 53 47 37 21 26 33 19 11 22 9 5 1 9 4 4 3 357 356 353 354 344 325 329 324 323 329 330 325 246 229 254 294 320 319
72 65 67 70 62 50 32 12 8 18 10 7 9 358 354 356 350 345 343 345 346 340 334 334 335 331 329 322 318 320 320 311 302 285 276 192 217 242